Location: Luxembourg
(49.6117°N, 6.1300°E)
Time: 16:06:46
(UTC+01:00)

Envisat - Visible Passes

Search period start: 20 November 2017 00:00
Search period end: 30 November 2017 00:00
Orbit: 764 x 766 km, 98.2° (Epoch: 20 November)

Date Brightness Start Highest point End Pass type
(mag) Time Alt. Az. Time Alt. Az. Time Alt. Az.
20 Nov 4.8 19:12:49 17° NNE 19:12:49 17° NNE 19:14:11 10° N visible
20 Nov 5.7 20:53:02 13° NNW 20:53:02 13° NNW 20:53:31 10° NNW visible
21 Nov 4.9 18:35:46 13° NNE 18:35:46 13° NNE 18:36:39 10° NNE visible
21 Nov 5.3 20:15:58 16° NNW 20:15:58 16° NNW 20:16:57 10° NNW visible
22 Nov 5.0 19:38:55 17° N 19:38:55 17° N 19:40:04 10° N visible
23 Nov 4.9 19:01:51 15° NNE 19:01:51 15° NNE 19:02:53 10° N visible
23 Nov 5.6 20:42:03 12° NNW 20:42:03 12° NNW 20:42:28 10° NNW visible
24 Nov 5.1 18:24:46 11° NNE 18:24:46 11° NNE 18:25:08 10° NNE visible
24 Nov 5.3 20:04:59 15° N 20:04:59 15° N 20:05:49 10° NNW visible
25 Nov 5.1 19:27:55 15° N 19:27:55 15° N 19:28:51 10° N visible
26 Nov 5.0 18:50:50 13° NNE 18:50:50 13° NNE 18:51:33 10° N visible
26 Nov 5.6 20:31:03 12° NNW 20:31:03 12° NNW 20:31:24 10° NNW visible
27 Nov 5.3 19:53:58 14° N 19:53:58 14° N 19:54:39 10° N visible
28 Nov 5.1 19:16:53 14° N 19:16:53 14° N 19:17:36 10° N visible
29 Nov 5.1 18:39:48 11° NNE 18:39:48 11° NNE 18:40:09 10° NNE visible
29 Nov 5.6 20:20:00 12° NNW 20:20:00 12° NNW 20:20:19 10° NNW visible
